HST
1 20580U 90037B   24189.23967556  .00004651  00000-0  21320-3 0  9998
2 20580  28.4668 210.7544 0002314 247.6974 112.3374 15.18001036680340
ISS (ZARYA)
1 25544U 98067A   24189.40743578  .00013839  00000-0  25273-3 0  9998
2 25544  51.6390 215.1492 0010356  39.7775  92.1414 15.49650187461685
CXO
1 25867U 99040B   24191.66312343  .00000408  00000-0  00000+0 0  9996
2 25867  41.6496 151.7250 8871285 297.9290   0.1797  0.37808744 25808